Year,Month,Day,Hour,Minute,Value (Times are PST for temperature in C)
2005,06,21,00,00,16.00
2005,06,21,00,01,15.90
2005,06,21,00,02,15.90
2005,06,21,00,03,15.90
2005,06,21,00,04,15.80
2005,06,21,00,05,15.80
2005,06,21,00,06,15.80
2005,06,21,00,07,15.80
2005,06,21,00,08,15.80
2005,06,21,00,09,15.90
2005,06,21,00,10,15.90
2005,06,21,00,11,15.90
2005,06,21,00,12,16.00
2005,06,21,00,13,16.10
2005,06,21,00,14,16.10
2005,06,21,00,15,16.10
2005,06,21,00,16,16.20
2005,06,21,00,17,16.30
2005,06,21,00,18,16.50
2005,06,21,00,19,16.60
2005,06,21,00,20,16.70
2005,06,21,00,21,16.70
2005,06,21,00,22,16.70
2005,06,21,00,23,16.70
2005,06,21,00,24,16.60
2005,06,21,00,25,16.60
2005,06,21,00,26,16.60
2005,06,21,00,27,16.60
2005,06,21,00,28,16.60
2005,06,21,00,29,16.60
2005,06,21,00,30,16.60
2005,06,21,00,31,16.50
2005,06,21,00,32,16.40
2005,06,21,00,33,16.40
2005,06,21,00,34,16.40
2005,06,21,00,35,16.40
2005,06,21,00,36,16.40
2005,06,21,00,37,16.40
2005,06,21,00,38,16.40
2005,06,21,00,39,16.40
2005,06,21,00,40,16.40
2005,06,21,00,41,16.30
2005,06,21,00,42,16.30
2005,06,21,00,43,16.30
2005,06,21,00,44,16.20
2005,06,21,00,45,16.20
2005,06,21,00,46,16.20
2005,06,21,00,47,16.20
2005,06,21,00,48,16.20
2005,06,21,00,49,16.20
2005,06,21,00,50,16.10
2005,06,21,00,51,16.10
2005,06,21,00,52,16.10
2005,06,21,00,53,16.10
2005,06,21,00,54,16.10
2005,06,21,00,55,16.10
2005,06,21,00,56,16.10
2005,06,21,00,57,16.10
2005,06,21,00,58,16.10
2005,06,21,00,59,16.10
2005,06,21,01,00,16.10
2005,06,21,01,01,16.10
2005,06,21,01,02,16.10
2005,06,21,01,03,16.10
2005,06,21,01,04,16.10
2005,06,21,01,05,16.10
2005,06,21,01,06,16.10
2005,06,21,01,07,16.10
2005,06,21,01,08,15.90
2005,06,21,01,09,15.90
2005,06,21,01,10,15.90
2005,06,21,01,11,15.90
2005,06,21,01,12,15.90
2005,06,21,01,13,15.90
2005,06,21,01,14,15.90
2005,06,21,01,15,15.90
2005,06,21,01,16,15.90
2005,06,21,01,17,15.80
2005,06,21,01,18,15.80
2005,06,21,01,19,15.80
2005,06,21,01,20,15.70
2005,06,21,01,21,15.70
2005,06,21,01,22,15.60
2005,06,21,01,23,15.60
2005,06,21,01,24,15.60
2005,06,21,01,25,15.50
2005,06,21,01,26,15.50
2005,06,21,01,27,15.50
2005,06,21,01,28,15.40
2005,06,21,01,29,15.40
2005,06,21,01,30,15.40
2005,06,21,01,31,15.30
2005,06,21,01,32,15.30
2005,06,21,01,33,15.30
2005,06,21,01,34,15.30
2005,06,21,01,35,15.30
2005,06,21,01,36,15.30
2005,06,21,01,37,15.30
2005,06,21,01,38,15.30
2005,06,21,01,39,15.30
2005,06,21,01,40,15.30
2005,06,21,01,41,15.30
2005,06,21,01,42,15.30
2005,06,21,01,43,15.30
2005,06,21,01,44,15.30
2005,06,21,01,45,15.30
2005,06,21,01,46,15.30
2005,06,21,01,47,15.30
2005,06,21,01,48,15.20
2005,06,21,01,49,15.20
2005,06,21,01,50,15.20
2005,06,21,01,51,15.20
2005,06,21,01,52,15.20
2005,06,21,01,53,15.20
2005,06,21,01,54,15.20
2005,06,21,01,55,15.20
2005,06,21,01,56,15.20
2005,06,21,01,57,15.20
2005,06,21,01,58,15.20
2005,06,21,01,59,15.20
2005,06,21,02,00,15.20
2005,06,21,02,01,15.20
2005,06,21,02,02,15.20
2005,06,21,02,03,15.10
2005,06,21,02,04,15.10
2005,06,21,02,05,15.00
2005,06,21,02,06,15.00
2005,06,21,02,07,15.00
2005,06,21,02,08,14.90
2005,06,21,02,09,14.90
2005,06,21,02,10,14.90
2005,06,21,02,11,14.90
2005,06,21,02,12,14.90
2005,06,21,02,13,14.90
2005,06,21,02,14,14.90
2005,06,21,02,15,14.90
2005,06,21,02,16,14.90
2005,06,21,02,17,14.90
2005,06,21,02,18,14.90
2005,06,21,02,19,14.90
2005,06,21,02,20,14.80
2005,06,21,02,21,14.80
2005,06,21,02,22,14.80
2005,06,21,02,23,14.80
2005,06,21,02,24,14.80
2005,06,21,02,25,14.80
2005,06,21,02,26,14.80
2005,06,21,02,27,14.80
2005,06,21,02,28,14.80
2005,06,21,02,29,14.80
2005,06,21,02,30,14.80
2005,06,21,02,31,14.80
2005,06,21,02,32,14.80
2005,06,21,02,33,14.80
2005,06,21,02,34,14.80
2005,06,21,02,35,14.80
2005,06,21,02,36,14.80
2005,06,21,02,37,14.80
2005,06,21,02,38,14.80
2005,06,21,02,39,14.80
2005,06,21,02,40,14.80
2005,06,21,02,41,14.80
2005,06,21,02,42,14.70
2005,06,21,02,43,14.70
2005,06,21,02,44,14.70
2005,06,21,02,45,14.70
2005,06,21,02,46,14.60
2005,06,21,02,47,14.60
2005,06,21,02,48,14.60
2005,06,21,02,49,14.60
2005,06,21,02,50,14.60
2005,06,21,02,51,14.60
2005,06,21,02,52,14.50
2005,06,21,02,53,14.50
2005,06,21,02,54,14.50
2005,06,21,02,55,14.50
2005,06,21,02,56,14.50
2005,06,21,02,57,14.50
2005,06,21,02,58,14.50
2005,06,21,02,59,14.50
2005,06,21,03,00,14.50
2005,06,21,03,01,14.50
2005,06,21,03,02,14.60
2005,06,21,03,03,14.60
2005,06,21,03,04,14.60
2005,06,21,03,05,14.60
2005,06,21,03,06,14.50
2005,06,21,03,07,14.50
2005,06,21,03,08,14.50
2005,06,21,03,09,14.50
2005,06,21,03,10,14.50
2005,06,21,03,11,14.50
2005,06,21,03,12,14.50
2005,06,21,03,13,14.40
2005,06,21,03,14,14.40
2005,06,21,03,15,14.40
2005,06,21,03,16,14.30
2005,06,21,03,17,14.30
2005,06,21,03,18,14.30
2005,06,21,03,19,14.20
2005,06,21,03,20,14.20
2005,06,21,03,21,14.20
2005,06,21,03,22,14.20
2005,06,21,03,23,14.20
2005,06,21,03,24,14.20
2005,06,21,03,25,14.20
2005,06,21,03,26,14.10
2005,06,21,03,27,14.10
2005,06,21,03,28,14.10
2005,06,21,03,29,14.10
2005,06,21,03,30,14.10
2005,06,21,03,31,14.10
2005,06,21,03,32,14.00
2005,06,21,03,33,14.00
2005,06,21,03,34,14.00
2005,06,21,03,35,14.00
2005,06,21,03,36,13.90
2005,06,21,03,37,13.90
2005,06,21,03,38,13.90
2005,06,21,03,39,13.80
2005,06,21,03,40,13.80
2005,06,21,03,41,13.70
2005,06,21,03,42,13.70
2005,06,21,03,43,13.70
2005,06,21,03,44,13.70
2005,06,21,03,45,13.70
2005,06,21,03,46,13.70
2005,06,21,03,47,13.60
2005,06,21,03,48,13.60
2005,06,21,03,49,13.60
2005,06,21,03,50,13.60
2005,06,21,03,51,13.60
2005,06,21,03,52,13.50
2005,06,21,03,53,13.50
2005,06,21,03,54,13.50
2005,06,21,03,55,13.50
2005,06,21,03,56,13.50
2005,06,21,03,57,13.50
2005,06,21,03,58,13.50
2005,06,21,03,59,13.50
2005,06,21,04,00,13.50
2005,06,21,04,01,13.50
2005,06,21,04,02,13.50
2005,06,21,04,03,13.50
2005,06,21,04,04,13.50
2005,06,21,04,05,13.50
2005,06,21,04,06,13.50
2005,06,21,04,07,13.50
2005,06,21,04,08,13.60
2005,06,21,04,09,13.60
2005,06,21,04,10,13.60
2005,06,21,04,11,13.70
2005,06,21,04,12,13.70
2005,06,21,04,13,13.70
2005,06,21,04,14,13.70
2005,06,21,04,15,13.80
2005,06,21,04,16,13.80
2005,06,21,04,17,13.80
2005,06,21,04,18,13.80
2005,06,21,04,19,13.80
2005,06,21,04,20,13.80
2005,06,21,04,21,13.70
2005,06,21,04,22,13.70
2005,06,21,04,23,13.70
2005,06,21,04,24,13.70
2005,06,21,04,25,13.70
2005,06,21,04,26,13.70
2005,06,21,04,27,13.70
2005,06,21,04,28,13.70
2005,06,21,04,29,13.70
2005,06,21,04,30,13.70
2005,06,21,04,31,13.70
2005,06,21,04,32,13.70
2005,06,21,04,33,13.70
2005,06,21,04,34,13.70
2005,06,21,04,35,13.70
2005,06,21,04,36,13.70
2005,06,21,04,37,13.70
2005,06,21,04,38,13.70
2005,06,21,04,39,13.70
2005,06,21,04,40,13.70
2005,06,21,04,41,13.70
2005,06,21,04,42,13.70
2005,06,21,04,43,13.70
2005,06,21,04,44,13.70
2005,06,21,04,45,13.70
2005,06,21,04,46,13.70
2005,06,21,04,47,13.70
2005,06,21,04,48,13.70
2005,06,21,04,49,13.70
2005,06,21,04,50,13.60
2005,06,21,04,51,13.60
2005,06,21,04,52,13.60
2005,06,21,04,53,13.60
2005,06,21,04,54,13.50
2005,06,21,04,55,13.50
2005,06,21,04,56,13.50
2005,06,21,04,57,13.50
2005,06,21,04,58,13.40
2005,06,21,04,59,13.40
2005,06,21,05,00,13.40
2005,06,21,05,01,13.40
2005,06,21,05,02,13.40
2005,06,21,05,03,13.40
2005,06,21,05,04,13.30
2005,06,21,05,05,13.30
2005,06,21,05,06,13.30
2005,06,21,05,07,13.30
2005,06,21,05,08,13.30
2005,06,21,05,09,13.30
2005,06,21,05,10,13.30
2005,06,21,05,11,13.30
2005,06,21,05,12,13.30
2005,06,21,05,13,13.30
2005,06,21,05,14,13.30
2005,06,21,05,15,13.30
2005,06,21,05,16,13.30
2005,06,21,05,17,13.30
2005,06,21,05,18,13.30
2005,06,21,05,19,13.40
2005,06,21,05,20,13.40
2005,06,21,05,21,13.40
2005,06,21,05,22,13.40
2005,06,21,05,23,13.40
2005,06,21,05,24,13.40
2005,06,21,05,25,13.40
2005,06,21,05,26,13.50
2005,06,21,05,27,13.50
2005,06,21,05,28,13.50
2005,06,21,05,29,13.50
2005,06,21,05,30,13.50
2005,06,21,05,31,13.60
2005,06,21,05,32,13.60
2005,06,21,05,33,13.60
2005,06,21,05,34,13.60
2005,06,21,05,35,13.60
2005,06,21,05,36,13.60
2005,06,21,05,37,13.60
2005,06,21,05,38,13.60
2005,06,21,05,39,13.60
2005,06,21,05,40,13.60
2005,06,21,05,41,13.60
2005,06,21,05,42,13.60
2005,06,21,05,43,13.60
2005,06,21,05,44,13.60
2005,06,21,05,45,13.50
2005,06,21,05,46,13.50
2005,06,21,05,47,13.50
2005,06,21,05,48,13.50
2005,06,21,05,49,13.60
2005,06,21,05,50,13.60
2005,06,21,05,51,13.60
2005,06,21,05,52,13.60
2005,06,21,05,53,13.60
2005,06,21,05,54,13.70
2005,06,21,05,55,13.70
2005,06,21,05,56,13.70
2005,06,21,05,57,13.70
2005,06,21,05,58,13.70
2005,06,21,05,59,13.70
2005,06,21,06,00,13.70
2005,06,21,06,01,13.70
2005,06,21,06,02,13.70
2005,06,21,06,03,13.70
2005,06,21,06,04,13.70
2005,06,21,06,05,13.70
2005,06,21,06,06,13.70
2005,06,21,06,07,13.70
2005,06,21,06,08,13.70
2005,06,21,06,09,13.70
2005,06,21,06,10,13.70
2005,06,21,06,11,13.70
2005,06,21,06,12,13.80
2005,06,21,06,13,13.80
2005,06,21,06,14,13.90
2005,06,21,06,15,14.00
2005,06,21,06,16,14.10
2005,06,21,06,17,14.20
2005,06,21,06,18,14.20
2005,06,21,06,19,14.30
2005,06,21,06,20,14.40
2005,06,21,06,21,14.50
2005,06,21,06,22,14.60
2005,06,21,06,23,14.60
2005,06,21,06,24,14.70
2005,06,21,06,25,14.80
2005,06,21,06,26,14.80
2005,06,21,06,27,14.80
2005,06,21,06,28,14.80
2005,06,21,06,29,14.80
2005,06,21,06,30,14.80
2005,06,21,06,31,14.80
2005,06,21,06,32,14.80
2005,06,21,06,33,14.90
2005,06,21,06,34,14.90
2005,06,21,06,35,14.90
2005,06,21,06,36,15.00
2005,06,21,06,37,15.00
2005,06,21,06,38,15.00
2005,06,21,06,39,15.00
2005,06,21,06,40,15.10
2005,06,21,06,41,15.10
2005,06,21,06,42,15.10
2005,06,21,06,43,15.10
2005,06,21,06,44,15.10
2005,06,21,06,45,15.20
2005,06,21,06,46,15.20
2005,06,21,06,47,15.20
2005,06,21,06,48,15.30
2005,06,21,06,49,15.30
2005,06,21,06,50,15.50
2005,06,21,06,51,15.60
2005,06,21,06,52,15.70
2005,06,21,06,53,15.80
2005,06,21,06,54,15.90
2005,06,21,06,55,16.00
2005,06,21,06,56,16.10
2005,06,21,06,57,16.10
2005,06,21,06,58,16.20
2005,06,21,06,59,16.20
2005,06,21,07,00,16.30
2005,06,21,07,01,16.30
2005,06,21,07,02,16.40
2005,06,21,07,03,16.50
2005,06,21,07,04,16.60
2005,06,21,07,05,16.70
2005,06,21,07,06,16.80
2005,06,21,07,07,17.00
2005,06,21,07,08,17.10
2005,06,21,07,09,17.20
2005,06,21,07,10,17.30
2005,06,21,07,11,17.30
2005,06,21,07,12,17.50
2005,06,21,07,13,17.60
2005,06,21,07,14,17.80
2005,06,21,07,15,17.90
2005,06,21,07,16,18.00
2005,06,21,07,17,18.10
2005,06,21,07,18,18.10
2005,06,21,07,19,18.20
2005,06,21,07,20,18.20
2005,06,21,07,21,18.20
2005,06,21,07,22,18.20
2005,06,21,07,23,18.20
2005,06,21,07,24,18.30
2005,06,21,07,25,18.40
2005,06,21,07,26,18.50
2005,06,21,07,27,18.60
2005,06,21,07,28,18.70
2005,06,21,07,29,18.70
2005,06,21,07,30,18.80
2005,06,21,07,31,18.80
2005,06,21,07,32,18.90
2005,06,21,07,33,18.90
2005,06,21,07,34,19.00
2005,06,21,07,35,19.10
2005,06,21,07,36,19.20
2005,06,21,07,37,19.20
2005,06,21,07,38,19.20
2005,06,21,07,39,19.20
2005,06,21,07,40,19.20
2005,06,21,07,41,19.30
2005,06,21,07,42,19.30
2005,06,21,07,43,19.30
2005,06,21,07,44,19.40
2005,06,21,07,45,19.40
2005,06,21,07,46,19.40
2005,06,21,07,47,19.50
2005,06,21,07,48,19.50
2005,06,21,07,49,19.50
2005,06,21,07,50,19.50
2005,06,21,07,51,19.50
2005,06,21,07,52,19.60
2005,06,21,07,53,19.60
2005,06,21,07,54,19.60
2005,06,21,07,55,19.60
2005,06,21,07,56,19.60
2005,06,21,07,57,19.50
2005,06,21,07,58,19.50
2005,06,21,07,59,19.40
2005,06,21,08,00,19.40
2005,06,21,08,01,19.30
2005,06,21,08,02,19.30
2005,06,21,08,03,19.20
2005,06,21,08,04,19.10
2005,06,21,08,05,19.00
2005,06,21,08,06,18.90
2005,06,21,08,07,18.90
2005,06,21,08,08,18.90
2005,06,21,08,09,18.90
2005,06,21,08,10,18.90
2005,06,21,08,11,18.90
2005,06,21,08,12,18.90
2005,06,21,08,13,18.90
2005,06,21,08,14,18.90
2005,06,21,08,15,19.00
2005,06,21,08,16,19.10
2005,06,21,08,17,19.10
2005,06,21,08,18,19.10
2005,06,21,08,19,19.20
2005,06,21,08,20,19.30
2005,06,21,08,21,19.40
2005,06,21,08,22,19.50
2005,06,21,08,23,19.50
2005,06,21,08,24,19.60
2005,06,21,08,25,19.70
2005,06,21,08,26,19.70
2005,06,21,08,27,19.80
2005,06,21,08,28,19.80
2005,06,21,08,29,19.90
2005,06,21,08,30,19.90
2005,06,21,08,31,20.10
2005,06,21,08,32,20.10
2005,06,21,08,33,20.20
2005,06,21,08,34,20.20
2005,06,21,08,35,20.20
2005,06,21,08,36,20.20
2005,06,21,08,37,20.20
2005,06,21,08,38,20.30
2005,06,21,08,39,20.30
2005,06,21,08,40,20.30
2005,06,21,08,41,20.30
2005,06,21,08,42,20.30
2005,06,21,08,43,20.30
2005,06,21,08,44,20.30
2005,06,21,08,45,20.30
2005,06,21,08,46,20.30
2005,06,21,08,47,20.20
2005,06,21,08,48,20.20
2005,06,21,08,49,20.20
2005,06,21,08,50,20.20
2005,06,21,08,51,20.20
2005,06,21,08,52,20.20
2005,06,21,08,53,20.20
2005,06,21,08,54,20.20
2005,06,21,08,55,20.30
2005,06,21,08,56,20.30
2005,06,21,08,57,20.30
2005,06,21,08,58,20.40
2005,06,21,08,59,20.40
2005,06,21,09,00,20.50
2005,06,21,09,01,20.50
2005,06,21,09,02,20.50
2005,06,21,09,03,20.50
2005,06,21,09,04,20.50
2005,06,21,09,05,20.40
2005,06,21,09,06,20.40
2005,06,21,09,07,20.40
2005,06,21,09,15,20.10
2005,06,21,09,16,20.10
2005,06,21,09,17,20.00
2005,06,21,09,18,19.90
2005,06,21,09,19,19.90
2005,06,21,09,20,19.90
2005,06,21,09,21,19.90
2005,06,21,09,22,20.10
2005,06,21,09,23,20.00
2005,06,21,09,24,19.90
2005,06,21,09,25,19.90
2005,06,21,09,26,19.90
2005,06,21,09,27,19.90
2005,06,21,09,28,19.90
2005,06,21,09,29,19.90
2005,06,21,09,30,19.90
2005,06,21,09,31,19.90
2005,06,21,09,32,19.90
2005,06,21,09,33,19.90
2005,06,21,09,34,19.90
2005,06,21,09,35,19.90
2005,06,21,09,36,19.90
2005,06,21,09,37,19.90
2005,06,21,09,38,19.90
2005,06,21,09,39,19.90
2005,06,21,09,40,19.90
2005,06,21,09,41,19.90
2005,06,21,09,42,19.90
2005,06,21,09,43,19.90
2005,06,21,09,44,20.00
2005,06,21,09,45,20.10
2005,06,21,09,46,20.10
2005,06,21,09,47,20.10
2005,06,21,09,48,20.10
2005,06,21,09,49,20.10
2005,06,21,09,50,20.10
2005,06,21,09,51,20.10
2005,06,21,09,52,20.20
2005,06,21,09,53,20.20
2005,06,21,09,54,20.20
2005,06,21,09,55,20.20
2005,06,21,09,56,20.20
2005,06,21,09,57,20.20
2005,06,21,09,58,20.20
2005,06,21,09,59,20.20
2005,06,21,10,00,20.20
2005,06,21,10,01,20.20
2005,06,21,10,02,20.30
2005,06,21,10,03,20.30
2005,06,21,10,04,20.40
2005,06,21,10,05,20.50
2005,06,21,10,06,20.60
2005,06,21,10,07,20.60
2005,06,21,10,08,20.80
2005,06,21,10,09,20.90
2005,06,21,10,10,21.00
2005,06,21,10,11,21.10
2005,06,21,10,12,21.20
2005,06,21,10,13,21.30
2005,06,21,10,14,21.40
2005,06,21,10,15,21.40
2005,06,21,10,16,21.40
2005,06,21,10,17,21.40
2005,06,21,10,18,21.30
2005,06,21,10,19,21.20
2005,06,21,10,20,21.00
2005,06,21,10,21,20.90
2005,06,21,10,22,20.80
2005,06,21,10,23,20.80
2005,06,21,10,24,21.00
2005,06,21,10,25,21.20
2005,06,21,10,26,21.30
2005,06,21,10,27,21.40
2005,06,21,10,28,21.40
2005,06,21,10,29,21.40
2005,06,21,10,30,21.20
2005,06,21,10,31,21.00
2005,06,21,10,32,20.80
2005,06,21,10,33,20.70
2005,06,21,10,34,20.50
2005,06,21,10,35,20.40
2005,06,21,10,36,20.40
2005,06,21,10,37,20.50
2005,06,21,10,38,20.50
2005,06,21,10,39,20.50
2005,06,21,10,40,20.40
2005,06,21,10,41,20.30
2005,06,21,10,42,20.30
2005,06,21,10,43,20.20
2005,06,21,10,44,20.20
2005,06,21,10,45,20.30
2005,06,21,10,46,20.30
2005,06,21,10,47,20.40
2005,06,21,10,48,20.50
2005,06,21,10,49,20.60
2005,06,21,10,50,20.80
2005,06,21,10,51,20.90
2005,06,21,10,52,21.10
2005,06,21,10,53,21.20
2005,06,21,10,54,21.10
2005,06,21,10,55,21.00
2005,06,21,10,56,20.90
2005,06,21,10,57,20.80
2005,06,21,10,58,20.80
2005,06,21,10,59,20.80
2005,06,21,11,00,21.00
2005,06,21,11,01,21.20
2005,06,21,11,02,21.40
2005,06,21,11,03,21.50
2005,06,21,11,04,21.60
2005,06,21,11,05,21.80
2005,06,21,11,06,22.00
2005,06,21,11,07,22.20
2005,06,21,11,08,22.20
2005,06,21,11,09,22.30
2005,06,21,11,10,22.30
2005,06,21,11,11,22.20
2005,06,21,11,12,22.10
2005,06,21,11,13,22.00
2005,06,21,11,14,22.00
2005,06,21,11,15,22.00
2005,06,21,11,16,22.00
2005,06,21,11,17,22.00
2005,06,21,11,18,22.00
2005,06,21,11,19,22.00
2005,06,21,11,20,22.00
2005,06,21,11,21,22.00
2005,06,21,11,22,22.00
2005,06,21,11,23,22.00
2005,06,21,11,24,22.00
2005,06,21,11,25,21.90
2005,06,21,11,26,21.80
2005,06,21,11,27,21.50
2005,06,21,11,28,21.30
2005,06,21,11,29,21.20
2005,06,21,11,30,21.10
2005,06,21,11,31,21.10
2005,06,21,11,32,21.00
2005,06,21,11,33,21.00
2005,06,21,11,34,21.00
2005,06,21,11,35,21.00
2005,06,21,11,36,21.10
2005,06,21,11,37,21.20
2005,06,21,11,38,21.10
2005,06,21,11,39,21.00
2005,06,21,11,40,20.80
2005,06,21,11,41,20.60
2005,06,21,11,42,20.50
2005,06,21,11,43,20.30
2005,06,21,11,44,20.20
2005,06,21,11,45,20.20
2005,06,21,11,46,20.20
2005,06,21,11,47,20.20
2005,06,21,11,48,20.20
2005,06,21,11,49,20.20
2005,06,21,11,50,20.20
2005,06,21,11,51,20.20
2005,06,21,11,52,20.30
2005,06,21,11,53,20.40
2005,06,21,11,54,20.60
2005,06,21,11,55,20.70
2005,06,21,11,56,21.00
2005,06,21,11,57,21.20
2005,06,21,11,58,21.40
2005,06,21,11,59,21.70
2005,06,21,12,00,22.00
2005,06,21,12,01,22.20
2005,06,21,12,02,22.40
2005,06,21,12,03,22.50
2005,06,21,12,04,22.60
2005,06,21,12,05,22.70
2005,06,21,12,06,22.80
2005,06,21,12,07,22.80
2005,06,21,12,08,22.90
2005,06,21,12,09,23.00
2005,06,21,12,10,23.10
2005,06,21,12,11,23.20
2005,06,21,12,12,23.40
2005,06,21,12,13,23.50
2005,06,21,12,14,23.70
2005,06,21,12,15,23.70
2005,06,21,12,16,23.80
2005,06,21,12,17,23.70
2005,06,21,12,18,23.50
2005,06,21,12,19,23.40
2005,06,21,12,20,23.10
2005,06,21,12,21,22.90
2005,06,21,12,22,22.70
2005,06,21,12,23,22.60
2005,06,21,12,24,22.50
2005,06,21,12,25,22.50
2005,06,21,12,26,22.50
2005,06,21,12,27,22.40
2005,06,21,12,28,22.40
2005,06,21,12,29,22.40
2005,06,21,12,30,22.50
2005,06,21,12,31,22.60
2005,06,21,12,32,22.60
2005,06,21,12,33,22.70
2005,06,21,12,34,22.80
2005,06,21,12,35,22.90
2005,06,21,12,36,22.90
2005,06,21,12,37,23.00
2005,06,21,12,38,23.10
2005,06,21,12,39,23.20
2005,06,21,12,40,23.20
2005,06,21,12,41,23.30
2005,06,21,12,42,23.30
2005,06,21,12,43,23.30
2005,06,21,12,44,23.20
2005,06,21,12,45,23.00
2005,06,21,12,46,22.80
2005,06,21,12,47,22.50
2005,06,21,12,48,22.20
2005,06,21,12,49,21.90
2005,06,21,12,50,21.60
2005,06,21,12,51,21.50
2005,06,21,12,52,21.30
2005,06,21,12,53,21.30
2005,06,21,12,54,21.20
2005,06,21,12,55,20.90
2005,06,21,12,56,20.50
2005,06,21,12,57,20.20
2005,06,21,12,58,19.90
2005,06,21,12,59,19.70
2005,06,21,13,00,19.50
2005,06,21,13,01,19.30
2005,06,21,13,02,19.10
2005,06,21,13,03,19.00
2005,06,21,13,04,19.00
2005,06,21,13,05,19.10
2005,06,21,13,06,19.10
2005,06,21,13,07,19.10
2005,06,21,13,08,19.20
2005,06,21,13,09,19.20
2005,06,21,13,10,19.30
2005,06,21,13,11,19.40
2005,06,21,13,12,19.50
2005,06,21,13,13,19.60
2005,06,21,13,14,19.60
2005,06,21,13,15,19.60
2005,06,21,13,16,19.50
2005,06,21,13,17,19.60
2005,06,21,13,18,19.60
2005,06,21,13,19,19.60
2005,06,21,13,20,19.70
2005,06,21,13,21,19.70
2005,06,21,13,22,19.80
2005,06,21,13,23,19.90
2005,06,21,13,24,20.00
2005,06,21,13,25,20.10
2005,06,21,13,26,20.10
2005,06,21,13,27,20.20
2005,06,21,13,28,20.20
2005,06,21,13,29,20.20
2005,06,21,13,30,20.20
2005,06,21,13,31,20.20
2005,06,21,13,32,20.20
2005,06,21,13,33,20.40
2005,06,21,13,34,20.40
2005,06,21,13,35,20.50
2005,06,21,13,36,20.70
2005,06,21,13,37,20.90
2005,06,21,13,38,21.10
2005,06,21,13,39,21.20
2005,06,21,13,40,21.20
2005,06,21,13,41,21.40
2005,06,21,13,42,21.60
2005,06,21,13,43,21.60
2005,06,21,13,44,21.70
2005,06,21,13,45,21.80
2005,06,21,13,46,21.80
2005,06,21,13,47,21.70
2005,06,21,13,48,21.70
2005,06,21,13,49,21.80
2005,06,21,13,50,21.90
2005,06,21,13,51,21.90
2005,06,21,13,52,21.90
2005,06,21,13,53,21.90
2005,06,21,13,54,22.00
2005,06,21,13,55,22.00
2005,06,21,13,56,22.10
2005,06,21,13,57,22.10
2005,06,21,13,58,22.20
2005,06,21,13,59,22.20
2005,06,21,14,00,22.10
2005,06,21,14,01,22.00
2005,06,21,14,02,22.00
2005,06,21,14,03,22.00
2005,06,21,14,04,21.90
2005,06,21,14,05,21.90
2005,06,21,14,06,21.90
2005,06,21,14,07,21.80
2005,06,21,14,08,21.70
2005,06,21,14,09,21.70
2005,06,21,14,10,21.70
2005,06,21,14,11,21.70
2005,06,21,14,12,21.80
2005,06,21,14,13,21.80
2005,06,21,14,14,21.90
2005,06,21,14,15,22.00
2005,06,21,14,16,22.10
2005,06,21,14,17,22.20
2005,06,21,14,18,22.40
2005,06,21,14,19,22.50
2005,06,21,14,20,22.60
2005,06,21,14,21,22.70
2005,06,21,14,22,22.70
2005,06,21,14,23,22.80
2005,06,21,14,24,22.90
2005,06,21,14,25,23.00
2005,06,21,14,26,23.10
2005,06,21,14,27,23.20
2005,06,21,14,28,23.30
2005,06,21,14,29,23.50
2005,06,21,14,30,23.60
2005,06,21,14,31,23.70
2005,06,21,14,32,23.70
2005,06,21,14,33,23.90
2005,06,21,14,34,23.90
2005,06,21,14,35,23.70
2005,06,21,14,36,23.50
2005,06,21,14,37,23.30
2005,06,21,14,38,23.20
2005,06,21,14,39,23.10
2005,06,21,14,40,23.00
2005,06,21,14,41,22.90
2005,06,21,14,42,22.80
2005,06,21,14,43,22.70
2005,06,21,14,44,22.70
2005,06,21,14,45,22.60
2005,06,21,14,46,22.60
2005,06,21,14,47,22.60
2005,06,21,14,48,22.70
2005,06,21,14,49,22.70
2005,06,21,14,50,22.80
2005,06,21,14,51,22.80
2005,06,21,14,52,22.90
2005,06,21,14,53,23.10
2005,06,21,14,54,23.30
2005,06,21,14,55,23.20
2005,06,21,14,56,23.30
2005,06,21,14,57,23.20
2005,06,21,14,58,23.10
2005,06,21,14,59,23.10
2005,06,21,15,00,23.20
2005,06,21,15,01,23.20
2005,06,21,15,02,23.30
2005,06,21,15,03,23.40
2005,06,21,15,04,23.60
2005,06,21,15,05,23.50
2005,06,21,15,06,23.50
2005,06,21,15,07,23.60
2005,06,21,15,08,23.70
2005,06,21,15,09,23.80
2005,06,21,15,10,23.80
2005,06,21,15,11,23.80
2005,06,21,15,12,23.90
2005,06,21,15,13,23.90
2005,06,21,15,14,23.90
2005,06,21,15,15,24.00
2005,06,21,15,16,24.10
2005,06,21,15,17,24.10
2005,06,21,15,18,24.10
2005,06,21,15,19,24.10
2005,06,21,15,20,24.20
2005,06,21,15,21,24.30
2005,06,21,15,22,24.40
2005,06,21,15,23,24.50
2005,06,21,15,24,24.50
2005,06,21,15,25,24.70
2005,06,21,15,26,24.70
2005,06,21,15,27,24.80
2005,06,21,15,28,24.90
2005,06,21,15,29,24.90
2005,06,21,15,30,25.00
2005,06,21,15,31,25.00
2005,06,21,15,32,25.10
2005,06,21,15,33,25.10
2005,06,21,15,34,25.20
2005,06,21,15,35,25.20
2005,06,21,15,36,25.30
2005,06,21,15,37,25.30
2005,06,21,15,38,25.40
2005,06,21,15,39,25.40
2005,06,21,15,40,25.50
2005,06,21,15,41,25.50
2005,06,21,15,42,25.50
2005,06,21,15,43,25.50
2005,06,21,15,44,25.50
2005,06,21,15,45,25.50
2005,06,21,15,46,25.50
2005,06,21,15,47,25.50
2005,06,21,15,48,25.50
2005,06,21,15,49,25.50
2005,06,21,15,50,25.50
2005,06,21,15,51,25.40
2005,06,21,15,52,25.40
2005,06,21,15,53,25.40
2005,06,21,15,54,25.40
2005,06,21,15,55,25.30
2005,06,21,15,56,25.30
2005,06,21,15,57,25.30
2005,06,21,15,58,25.30
2005,06,21,15,59,25.30
2005,06,21,16,00,25.20
2005,06,21,16,01,25.20
2005,06,21,16,02,25.20
2005,06,21,16,03,25.20
2005,06,21,16,04,25.20
2005,06,21,16,05,25.10
2005,06,21,16,06,25.10
2005,06,21,16,07,25.00
2005,06,21,16,08,25.00
2005,06,21,16,09,24.90
2005,06,21,16,10,24.90
2005,06,21,16,11,24.80
2005,06,21,16,12,24.70
2005,06,21,16,13,24.70
2005,06,21,16,14,24.60
2005,06,21,16,15,24.60
2005,06,21,16,16,24.50
2005,06,21,16,17,24.50
2005,06,21,16,18,24.40
2005,06,21,16,19,24.20
2005,06,21,16,20,24.10
2005,06,21,16,21,23.90
2005,06,21,16,22,23.80
2005,06,21,16,23,23.60
2005,06,21,16,24,23.50
2005,06,21,16,25,23.30
2005,06,21,16,26,23.20
2005,06,21,16,27,23.10
2005,06,21,16,28,23.10
2005,06,21,16,29,22.70
2005,06,21,16,30,22.50
2005,06,21,16,31,22.30
2005,06,21,16,32,22.10
2005,06,21,16,33,22.00
2005,06,21,16,34,21.70
2005,06,21,16,35,21.60
2005,06,21,16,36,21.50
2005,06,21,16,37,21.30
2005,06,21,16,38,21.30
2005,06,21,16,39,21.10
2005,06,21,16,40,21.00
2005,06,21,16,41,21.00
2005,06,21,16,42,20.90
2005,06,21,16,43,20.80
2005,06,21,16,44,20.80
2005,06,21,16,45,20.70
2005,06,21,16,46,20.60
2005,06,21,16,47,20.50
2005,06,21,16,48,20.40
2005,06,21,16,49,20.20
2005,06,21,16,50,20.20
2005,06,21,16,51,20.20
2005,06,21,16,52,20.10
2005,06,21,16,53,20.00
2005,06,21,16,54,19.90
2005,06,21,16,55,19.90
2005,06,21,16,56,19.80
2005,06,21,16,57,19.50
2005,06,21,16,58,19.20
2005,06,21,16,59,19.00
2005,06,21,17,00,18.80
2005,06,21,17,01,18.70
2005,06,21,17,02,18.60
2005,06,21,17,03,18.60
2005,06,21,17,04,18.50
2005,06,21,17,05,18.50
2005,06,21,17,06,18.40
2005,06,21,17,07,18.30
2005,06,21,17,08,18.30
2005,06,21,17,09,18.20
2005,06,21,17,10,18.20
2005,06,21,17,11,18.20
2005,06,21,17,12,18.10
2005,06,21,17,13,18.00
2005,06,21,17,14,17.90
2005,06,21,17,15,17.80
2005,06,21,17,16,17.80
2005,06,21,17,17,17.70
2005,06,21,17,18,17.60
2005,06,21,17,19,17.50
2005,06,21,17,20,17.50
2005,06,21,17,21,17.40
2005,06,21,17,22,17.30
2005,06,21,17,23,17.30
2005,06,21,17,24,17.30
2005,06,21,17,25,17.20
2005,06,21,17,26,17.10